NORTHERN QUEENS  -  Heat Advisory Heat Advisory     Air Quality Alert Air Quality Alert        SOUTHERN QUEENS  -  Heat Advisory Heat Advisory     Air Quality Alert Air Quality Alert      

Active alerts

Northern Queens
  Details for Northern Queens Heat Advisory  +1 additional alert
Southern Queens
  Details for Southern Queens Heat Advisory  +1 additional alert


WXM80 ListenWXM80 Stop

You find our weather info also at:

UK Metoffice

WeatherCloud

Weather Underground

Northeastern Weather Network

AWEKAS

Citizen Weather Observer Program (CWOP)

HAMweather, WeatherForYou, PWS Weather


Weather Underground History page Text

Daily Summary for December 4, 2017 Units:  English    Metric   Both
« Previous Day
Next Day »
Daily Weekly Monthly Yearly Custom
  High: Low: Average:
Temperature: 48.7 °F 33.8 °F 41.5 °F
Dew Point: 43.0 °F 32.3 °F 38.1 °F
Humidity: 97 % 79 % 88 %
Wind Speed: 5.6 mph 0.0 mph 1.2 mph
Wind Gust: 9.2 mph - -
Wind:- - East
Pressure: 30.46 in 30.31 in -
Precipitation: 0.00 in    
Historical Graphs
 
 
Tabular Data for December 4, 2017
Time Temperature Dew Point Pressure Wind Wind Speed Wind Gust Humidity Rainfall Rate (Hourly)
00:04 38.2 °F 35.8 °F 30.31 in Calm     91 % 0.00 in
00:09 38.0 °F 35.6 °F 30.31 in Calm     91 % 0.00 in
00:14 37.9 °F 35.5 °F 30.31 in Calm     91 % 0.00 in
00:19 37.7 °F 35.3 °F 30.31 in Calm   1.0 mph 91 % 0.00 in
00:20 37.7 °F 35.3 °F 30.31 in ENE 0.3 mph 1.2 mph 91 % 0.00 in
00:25 37.6 °F 35.2 °F 30.31 in Calm     91 % 0.00 in
00:30 37.4 °F 35.0 °F 30.31 in Calm     91 % 0.00 in
00:35 37.3 °F 34.9 °F 30.31 in ENE 0.5 mph 1.2 mph 91 % 0.00 in
00:40 37.2 °F 35.1 °F 30.31 in Calm     92 % 0.00 in
00:45 37.1 °F 35.0 °F 30.31 in Calm     92 % 0.00 in
00:50 37.0 °F 34.9 °F 30.31 in Calm     92 % 0.00 in
00:55 36.9 °F 34.8 °F 30.31 in Calm     92 % 0.00 in
01:00 36.8 °F 34.7 °F 30.31 in Calm     92 % 0.00 in
01:05 36.8 °F 34.7 °F 30.31 in Calm   1.2 mph 92 % 0.00 in
01:10 36.7 °F 34.6 °F 30.31 in ENE 0.3 mph 1.2 mph 92 % 0.00 in
01:15 36.7 °F 34.6 °F 30.31 in Calm     92 % 0.00 in
01:20 36.8 °F 34.7 °F 30.31 in Calm     92 % 0.00 in
01:25 36.8 °F 34.7 °F 30.31 in Calm     92 % 0.00 in
01:30 36.8 °F 35.0 °F 30.31 in Calm     93 % 0.00 in
01:35 36.8 °F 35.0 °F 30.31 in Calm     93 % 0.00 in
01:40 36.8 °F 35.0 °F 30.31 in Calm     93 % 0.00 in
01:45 36.7 °F 34.9 °F 30.32 in Calm   1.2 mph 93 % 0.00 in
01:50 36.7 °F 34.9 °F 30.32 in Calm     93 % 0.00 in
01:55 36.7 °F 34.9 °F 30.32 in Calm     93 % 0.00 in
02:00 36.6 °F 34.8 °F 30.32 in Calm     93 % 0.00 in
02:05 36.6 °F 34.8 °F 30.32 in Calm     93 % 0.00 in
02:10 36.5 °F 34.7 °F 30.32 in Calm   1.2 mph 93 % 0.00 in
02:15 36.4 °F 34.6 °F 30.32 in NNE 0.2 mph 1.2 mph 93 % 0.00 in
02:20 36.4 °F 34.6 °F 30.32 in Calm     93 % 0.00 in
02:25 36.3 °F 34.5 °F 30.32 in Calm     93 % 0.00 in
02:30 36.3 °F 34.5 °F 30.32 in Calm     93 % 0.00 in
02:35 36.3 °F 34.5 °F 30.33 in NE 0.7 mph 3.5 mph 93 % 0.00 in
02:40 36.3 °F 34.5 °F 30.33 in Calm     93 % 0.00 in
02:45 36.4 °F 34.6 °F 30.33 in Calm     93 % 0.00 in
02:50 36.4 °F 34.8 °F 30.33 in Calm     94 % 0.00 in
02:55 36.4 °F 34.8 °F 30.33 in Calm     94 % 0.00 in
03:00 36.4 °F 34.8 °F 30.33 in Calm     94 % 0.00 in
03:05 36.4 °F 34.8 °F 30.34 in Calm     94 % 0.00 in
03:10 36.4 °F 34.8 °F 30.33 in Calm     94 % 0.00 in
03:15 36.4 °F 34.8 °F 30.34 in Calm     94 % 0.00 in
03:20 36.3 °F 34.7 °F 30.33 in Calm     94 % 0.00 in
03:25 36.3 °F 34.7 °F 30.33 in Calm     94 % 0.00 in
03:30 36.3 °F 34.7 °F 30.34 in NE 0.2 mph 1.0 mph 94 % 0.00 in
03:35 36.2 °F 34.6 °F 30.34 in Calm     94 % 0.00 in
03:40 36.1 °F 34.5 °F 30.34 in Calm     94 % 0.00 in
03:45 36.1 °F 34.5 °F 30.34 in Calm     94 % 0.00 in
03:50 36.1 °F 34.5 °F 30.35 in Calm     94 % 0.00 in
03:55 36.1 °F 34.5 °F 30.36 in NE 0.9 mph 1.2 mph 94 % 0.00 in
03:57 36.1 °F 34.5 °F 30.36 in NE 0.7 mph 1.2 mph 94 % 0.00 in
04:02 36.1 °F 34.5 °F 30.35 in Calm     94 % 0.00 in
04:07 36.1 °F 34.5 °F 30.35 in NE 0.3 mph 1.2 mph 94 % 0.00 in
04:13 36.0 °F 34.4 °F 30.35 in Calm     94 % 0.00 in
04:18 36.0 °F 34.4 °F 30.35 in Calm     94 % 0.00 in
04:23 36.0 °F 34.4 °F 30.35 in Calm     94 % 0.00 in
04:28 35.9 °F 34.3 °F 30.35 in Calm     94 % 0.00 in
04:33 35.8 °F 34.2 °F 30.35 in NE 0.1 mph 1.2 mph 94 % 0.00 in
04:38 35.7 °F 34.1 °F 30.35 in Calm     94 % 0.00 in
04:43 35.5 °F 33.9 °F 30.35 in Calm     94 % 0.00 in
04:48 35.4 °F 33.8 °F 30.35 in Calm   1.2 mph 94 % 0.00 in
04:53 35.2 °F 33.6 °F 30.35 in Calm     94 % 0.00 in
04:58 35.1 °F 33.5 °F 30.36 in Calm     94 % 0.00 in
05:03 35.1 °F 33.5 °F 30.36 in Calm     94 % 0.00 in
05:08 35.0 °F 33.4 °F 30.36 in Calm     94 % 0.00 in
05:13 35.0 °F 33.4 °F 30.36 in Calm     94 % 0.00 in
05:18 34.9 °F 33.3 °F 30.36 in Calm     94 % 0.00 in
05:23 34.8 °F 33.2 °F 30.37 in Calm     94 % 0.00 in
05:28 34.7 °F 33.2 °F 30.37 in NE 0.3 mph 1.2 mph 94 % 0.00 in
05:33 34.6 °F 33.1 °F 30.36 in Calm     94 % 0.00 in
05:38 34.5 °F 33.0 °F 30.37 in Calm     94 % 0.00 in
05:43 34.4 °F 32.9 °F 30.37 in Calm     94 % 0.00 in
05:49 34.4 °F 32.9 °F 30.37 in Calm     94 % 0.00 in
05:53 34.4 °F 32.9 °F 30.37 in Calm     94 % 0.00 in
05:58 34.4 °F 32.9 °F 30.38 in Calm     94 % 0.00 in
06:04 34.3 °F 32.8 °F 30.38 in Calm     94 % 0.00 in
06:09 34.3 °F 32.8 °F 30.38 in Calm     94 % 0.00 in
06:14 34.3 °F 32.8 °F 30.38 in Calm     94 % 0.00 in
06:19 34.3 °F 32.8 °F 30.38 in Calm     94 % 0.00 in
06:24 34.2 °F 32.7 °F 30.38 in Calm     94 % 0.00 in
06:29 34.2 °F 32.7 °F 30.39 in Calm     94 % 0.00 in
06:34 34.1 °F 32.6 °F 30.39 in Calm     94 % 0.00 in
06:39 34.0 °F 32.5 °F 30.39 in Calm     94 % 0.00 in
06:40 34.0 °F 32.5 °F 30.39 in Calm     94 % 0.00 in
06:45 33.9 °F 32.4 °F 30.39 in Calm     94 % 0.00 in
06:50 33.9 °F 32.4 °F 30.40 in Calm     94 % 0.00 in
06:55 33.8 °F 32.3 °F 30.40 in Calm     94 % 0.00 in
07:00 33.8 °F 32.3 °F 30.40 in Calm     94 % 0.00 in
07:05 33.9 °F 32.4 °F 30.40 in Calm     94 % 0.00 in
07:10 33.9 °F 32.4 °F 30.40 in Calm     94 % 0.00 in
07:15 34.0 °F 32.5 °F 30.41 in Calm     94 % 0.00 in
07:20 34.0 °F 32.7 °F 30.41 in Calm     95 % 0.00 in
07:25 34.1 °F 32.8 °F 30.41 in Calm     95 % 0.00 in
07:30 34.2 °F 32.9 °F 30.42 in Calm     95 % 0.00 in
07:35 34.2 °F 32.9 °F 30.42 in Calm     95 % 0.00 in
07:40 34.3 °F 33.0 °F 30.43 in Calm     95 % 0.00 in
07:45 34.3 °F 33.0 °F 30.43 in Calm     95 % 0.00 in
07:50 34.4 °F 33.1 °F 30.43 in Calm     95 % 0.00 in
07:55 34.5 °F 33.2 °F 30.43 in Calm     95 % 0.00 in
08:00 34.6 °F 33.3 °F 30.43 in Calm     95 % 0.00 in
08:05 34.7 °F 33.4 °F 30.43 in Calm     95 % 0.00 in
08:10 35.0 °F 33.7 °F 30.43 in Calm     95 % 0.00 in
08:15 35.2 °F 33.9 °F 30.44 in Calm   1.2 mph 95 % 0.00 in
08:20 35.7 °F 34.7 °F 30.44 in ENE 0.5 mph 2.3 mph 96 % 0.00 in
08:25 36.1 °F 35.1 °F 30.44 in ENE 1.2 mph 3.5 mph 96 % 0.00 in
08:30 36.9 °F 35.9 °F 30.44 in ENE 2.2 mph 3.5 mph 96 % 0.00 in
08:35 38.3 °F 37.5 °F 30.44 in ENE 2.5 mph 4.0 mph 97 % 0.00 in
08:40 39.4 °F 38.6 °F 30.44 in ENE 3.7 mph 4.6 mph 97 % 0.00 in
08:45 40.1 °F 39.3 °F 30.44 in ENE 5.6 mph 9.2 mph 97 % 0.00 in
08:50 40.6 °F 39.8 °F 30.44 in NE 5.0 mph 6.9 mph 97 % 0.00 in
08:55 41.1 °F 40.3 °F 30.45 in NE 3.2 mph 5.8 mph 97 % 0.00 in
09:00 41.5 °F 40.7 °F 30.45 in ENE 5.0 mph 7.0 mph 97 % 0.00 in
09:05 41.9 °F 41.1 °F 30.45 in ENE 4.6 mph 8.1 mph 97 % 0.00 in
09:10 42.2 °F 41.1 °F 30.45 in ENE 5.0 mph 6.9 mph 96 % 0.00 in
09:15 42.6 °F 41.3 °F 30.45 in ENE 4.2 mph 5.8 mph 95 % 0.00 in
09:21 42.9 °F 41.6 °F 30.45 in ENE 3.9 mph 6.9 mph 95 % 0.00 in
09:26 43.3 °F 41.7 °F 30.45 in ENE 3.7 mph 6.9 mph 94 % 0.00 in
09:31 43.7 °F 41.8 °F 30.45 in NE 4.6 mph 5.8 mph 93 % 0.00 in
09:36 44.1 °F 41.9 °F 30.45 in ENE 3.8 mph 7.0 mph 92 % 0.00 in
09:40 44.4 °F 41.9 °F 30.45 in ENE 3.0 mph 4.6 mph 91 % 0.00 in
09:46 44.7 °F 42.2 °F 30.46 in ENE 5.0 mph 8.0 mph 91 % 0.00 in
09:51 45.2 °F 42.4 °F 30.46 in ENE 2.8 mph 5.8 mph 90 % 0.00 in
09:56 45.7 °F 42.3 °F 30.46 in ENE 2.8 mph 6.9 mph 88 % 0.00 in
10:00 46.1 °F 42.4 °F 30.46 in NE 4.3 mph 8.1 mph 87 % 0.00 in
10:05 46.3 °F 42.3 °F 30.46 in ENE 3.3 mph 6.9 mph 86 % 0.00 in
10:10 46.5 °F 42.2 °F 30.46 in ENE 5.2 mph 6.9 mph 85 % 0.00 in
10:13 46.6 °F 42.3 °F 30.46 in ENE 5.1 mph 6.9 mph 85 % 0.00 in
10:18 46.7 °F 42.1 °F 30.46 in ENE 4.0 mph 6.9 mph 84 % 0.00 in
10:23 46.6 °F 42.0 °F 30.46 in ENE 3.3 mph 5.0 mph 84 % 0.00 in
10:28 46.7 °F 42.1 °F 30.46 in ENE 4.9 mph 8.1 mph 84 % 0.00 in
10:33 46.7 °F 42.1 °F 30.46 in ENE 3.3 mph 6.9 mph 84 % 0.00 in
10:38 46.6 °F 42.0 °F 30.46 in ENE 3.7 mph 5.0 mph 84 % 0.00 in
10:43 46.7 °F 42.1 °F 30.46 in ENE 3.5 mph 6.9 mph 84 % 0.00 in
10:48 46.7 °F 42.1 °F 30.46 in ENE 3.5 mph 6.9 mph 84 % 0.00 in
10:53 46.7 °F 41.8 °F 30.45 in ENE 4.9 mph 7.0 mph 83 % 0.00 in
10:59 46.7 °F 41.8 °F 30.45 in NE 3.3 mph 4.6 mph 83 % 0.00 in
11:04 46.8 °F 41.9 °F 30.45 in ENE 4.1 mph 6.9 mph 83 % 0.00 in
11:09 46.7 °F 41.8 °F 30.45 in NE 3.2 mph 5.0 mph 83 % 0.00 in
11:14 46.7 °F 41.8 °F 30.45 in ENE 4.3 mph 7.0 mph 83 % 0.00 in
11:19 46.7 °F 41.8 °F 30.45 in NE 2.9 mph 5.8 mph 83 % 0.00 in
11:24 46.8 °F 41.9 °F 30.45 in East 2.5 mph 4.6 mph 83 % 0.00 in
11:29 46.9 °F 41.7 °F 30.45 in NE 1.8 mph 4.6 mph 82 % 0.00 in
11:34 46.9 °F 41.7 °F 30.45 in ENE 2.6 mph 4.6 mph 82 % 0.00 in
11:39 46.9 °F 41.7 °F 30.45 in East 3.1 mph 4.6 mph 82 % 0.00 in
11:44 47.0 °F 41.8 °F 30.45 in NE 1.5 mph 3.5 mph 82 % 0.00 in
11:49 47.0 °F 41.8 °F 30.45 in ENE 3.6 mph 5.0 mph 82 % 0.00 in
11:54 47.1 °F 41.6 °F 30.45 in ENE 3.8 mph 6.9 mph 81 % 0.00 in
11:59 47.2 °F 41.7 °F 30.44 in NE 4.0 mph 5.8 mph 81 % 0.00 in
12:04 47.3 °F 41.4 °F 30.44 in ENE 3.0 mph 4.6 mph 80 % 0.00 in
12:09 47.5 °F 41.6 °F 30.44 in ENE 3.2 mph 4.0 mph 80 % 0.00 in
12:14 47.7 °F 41.8 °F 30.44 in East 1.9 mph 4.6 mph 80 % 0.00 in
12:19 47.9 °F 42.0 °F 30.44 in NE 3.5 mph 6.9 mph 80 % 0.00 in
12:24 48.3 °F 42.7 °F 30.44 in ENE 1.7 mph 4.6 mph 81 % 0.00 in
12:29 48.5 °F 42.6 °F 30.44 in ENE 2.1 mph 3.5 mph 80 % 0.00 in
12:34 48.4 °F 42.5 °F 30.43 in NE 2.6 mph 6.9 mph 80 % 0.00 in
12:39 48.5 °F 42.6 °F 30.43 in ENE 1.6 mph 3.5 mph 80 % 0.00 in
12:44 48.5 °F 42.6 °F 30.44 in NE 2.3 mph 4.6 mph 80 % 0.00 in
12:49 48.5 °F 42.6 °F 30.43 in ENE 2.9 mph 5.0 mph 80 % 0.00 in
12:51 48.6 °F 42.7 °F 30.43 in NE 3.0 mph 5.0 mph 80 % 0.00 in
12:56 48.4 °F 42.5 °F 30.43 in ENE 5.0 mph 7.0 mph 80 % 0.00 in
13:01 48.3 °F 42.4 °F 30.43 in ENE 3.1 mph 6.9 mph 80 % 0.00 in
13:06 48.3 °F 42.7 °F 30.43 in ENE 2.6 mph 3.5 mph 81 % 0.00 in
13:11 48.2 °F 42.3 °F 30.43 in ENE 3.0 mph 4.6 mph 80 % 0.00 in
13:16 48.3 °F 42.7 °F 30.43 in ENE 2.9 mph 3.5 mph 81 % 0.00 in
13:21 48.4 °F 42.5 °F 30.43 in ENE 3.0 mph 6.0 mph 80 % 0.00 in
13:23 48.4 °F 42.5 °F 30.43 in ENE 2.7 mph 4.0 mph 80 % 0.00 in
13:28 48.5 °F 42.9 °F 30.42 in NE 2.6 mph 5.0 mph 81 % 0.00 in
13:33 48.5 °F 42.6 °F 30.42 in ENE 2.7 mph 5.0 mph 80 % 0.00 in
13:38 48.6 °F 43.0 °F 30.42 in NE 3.4 mph 5.0 mph 81 % 0.00 in
13:43 48.7 °F 42.8 °F 30.42 in NE 1.5 mph 4.6 mph 80 % 0.00 in
13:49 48.6 °F 42.7 °F 30.42 in ENE 5.0 mph 5.0 mph 80 % 0.00 in
13:54 48.5 °F 42.6 °F 30.42 in ENE 3.3 mph 4.6 mph 80 % 0.00 in
13:59 48.4 °F 42.5 °F 30.42 in East 4.7 mph 6.0 mph 80 % 0.00 in
14:04 48.3 °F 42.1 °F 30.42 in ENE 3.8 mph 6.9 mph 79 % 0.00 in
14:09 48.3 °F 42.4 °F 30.42 in ENE 2.0 mph 4.6 mph 80 % 0.00 in
14:14 48.2 °F 42.3 °F 30.42 in ENE 3.4 mph 4.6 mph 80 % 0.00 in
14:19 48.1 °F 41.9 °F 30.42 in ENE 4.9 mph 6.9 mph 79 % 0.00 in
14:24 48.0 °F 42.1 °F 30.42 in ENE 2.8 mph 4.6 mph 80 % 0.00 in
14:29 47.9 °F 42.0 °F 30.41 in East 4.4 mph 5.8 mph 80 % 0.00 in
14:32 47.9 °F 42.0 °F 30.41 in ENE 2.6 mph 3.5 mph 80 % 0.00 in
14:37 47.8 °F 41.9 °F 30.42 in East 3.2 mph 4.6 mph 80 % 0.00 in
14:42 47.8 °F 41.9 °F 30.42 in East 2.9 mph 4.6 mph 80 % 0.00 in
14:47 47.6 °F 41.7 °F 30.42 in ENE 2.8 mph 4.6 mph 80 % 0.00 in
14:52 47.5 °F 42.0 °F 30.42 in ENE 2.0 mph 4.6 mph 81 % 0.00 in
14:57 47.4 °F 41.9 °F 30.42 in East 3.6 mph 5.0 mph 81 % 0.00 in
15:02 47.2 °F 41.7 °F 30.43 in East 2.2 mph 4.6 mph 81 % 0.00 in
15:07 47.0 °F 41.8 °F 30.43 in East 0.6 mph 2.3 mph 82 % 0.00 in
15:12 46.9 °F 41.7 °F 30.43 in East 1.8 mph 3.5 mph 82 % 0.00 in
15:17 46.8 °F 41.6 °F 30.43 in East 1.1 mph 3.5 mph 82 % 0.00 in
15:22 46.7 °F 41.5 °F 30.43 in East 1.6 mph 2.3 mph 82 % 0.00 in
15:28 46.6 °F 41.4 °F 30.43 in East 0.7 mph 1.2 mph 82 % 0.00 in
15:33 46.6 °F 41.7 °F 30.43 in Calm     83 % 0.00 in
15:38 46.6 °F 41.7 °F 30.43 in Calm   1.2 mph 83 % 0.00 in
15:43 46.5 °F 41.3 °F 30.43 in Calm     82 % 0.00 in
15:48 46.5 °F 41.0 °F 30.43 in SSE 1.4 mph 4.0 mph 81 % 0.00 in
15:53 46.4 °F 40.9 °F 30.43 in SSE 0.8 mph 2.3 mph 81 % 0.00 in
15:58 46.4 °F 40.6 °F 30.43 in SSE 0.1 mph 1.2 mph 80 % 0.00 in
16:03 46.4 °F 40.6 °F 30.43 in SSE 0.5 mph 2.3 mph 80 % 0.00 in
16:08 46.5 °F 40.7 °F 30.44 in SSE 2.4 mph 3.5 mph 80 % 0.00 in
16:13 46.5 °F 40.7 °F 30.44 in SE 3.6 mph 4.6 mph 80 % 0.00 in
16:18 46.6 °F 40.8 °F 30.44 in SSE 2.6 mph 3.5 mph 80 % 0.00 in
16:23 46.6 °F 40.8 °F 30.44 in SE 1.2 mph 3.5 mph 80 % 0.00 in
16:28 46.6 °F 40.4 °F 30.44 in SSE 0.1 mph 1.2 mph 79 % 0.00 in
16:33 46.6 °F 40.4 °F 30.44 in Calm   3.5 mph 79 % 0.00 in
16:38 46.5 °F 40.3 °F 30.43 in SE 1.2 mph 3.5 mph 79 % 0.00 in
16:43 46.5 °F 40.7 °F 30.43 in SE 0.4 mph 2.0 mph 80 % 0.00 in
16:48 46.4 °F 40.6 °F 30.43 in SE 1.2 mph 2.3 mph 80 % 0.00 in
16:53 46.2 °F 40.4 °F 30.43 in SE 0.2 mph 1.2 mph 80 % 0.00 in
16:58 46.1 °F 40.3 °F 30.43 in Calm     80 % 0.00 in
17:03 45.9 °F 40.1 °F 30.44 in SE 0.4 mph 1.2 mph 80 % 0.00 in
17:08 45.8 °F 40.0 °F 30.43 in SE 0.3 mph 2.3 mph 80 % 0.00 in
17:14 45.6 °F 40.1 °F 30.43 in SE 1.1 mph 2.3 mph 81 % 0.00 in
17:19 45.4 °F 39.9 °F 30.43 in SE 1.9 mph 3.5 mph 81 % 0.00 in
17:24 45.2 °F 39.7 °F 30.43 in SE 1.8 mph 3.5 mph 81 % 0.00 in
17:29 45.1 °F 39.6 °F 30.42 in SE 1.4 mph 3.5 mph 81 % 0.00 in
17:34 44.9 °F 39.7 °F 30.42 in SE 1.6 mph 3.5 mph 82 % 0.00 in
17:39 44.7 °F 39.5 °F 30.42 in SE 0.2 mph 3.0 mph 82 % 0.00 in
17:44 44.6 °F 39.4 °F 30.42 in SE 0.6 mph 3.5 mph 82 % 0.00 in
17:49 44.4 °F 39.6 °F 30.42 in SE 0.5 mph 1.2 mph 83 % 0.00 in
17:54 44.3 °F 39.5 °F 30.42 in SE 0.5 mph 2.3 mph 83 % 0.00 in
17:59 44.2 °F 39.4 °F 30.42 in Calm   2.3 mph 83 % 0.00 in
18:04 44.0 °F 39.2 °F 30.42 in SE 0.1 mph 2.3 mph 83 % 0.00 in
18:09 44.0 °F 39.2 °F 30.42 in SE 0.1 mph 1.2 mph 83 % 0.00 in
18:14 43.8 °F 39.0 °F 30.42 in SE 2.2 mph 3.5 mph 83 % 0.00 in
18:19 43.7 °F 39.2 °F 30.42 in SE 1.9 mph 3.5 mph 84 % 0.00 in
18:24 43.6 °F 39.1 °F 30.42 in SE 1.1 mph 3.5 mph 84 % 0.00 in
18:29 43.5 °F 39.0 °F 30.42 in SE 1.7 mph 3.5 mph 84 % 0.00 in
18:34 43.5 °F 39.0 °F 30.42 in Calm     84 % 0.00 in
18:39 43.4 °F 38.9 °F 30.43 in SE 1.0 mph 3.5 mph 84 % 0.00 in
18:44 43.3 °F 38.8 °F 30.43 in SE 0.4 mph 2.3 mph 84 % 0.00 in
18:49 43.2 °F 38.7 °F 30.43 in Calm   1.2 mph 84 % 0.00 in
18:54 43.1 °F 38.6 °F 30.43 in Calm     84 % 0.00 in
18:59 43.0 °F 38.5 °F 30.44 in Calm     84 % 0.00 in
19:05 42.9 °F 38.4 °F 30.44 in Calm     84 % 0.00 in
19:10 42.8 °F 38.3 °F 30.44 in Calm     84 % 0.00 in
19:15 42.7 °F 38.2 °F 30.44 in Calm     84 % 0.00 in
19:20 42.5 °F 38.0 °F 30.44 in Calm     84 % 0.00 in
19:22 42.4 °F 37.9 °F 30.45 in Calm     84 % 0.00 in
19:27 42.2 °F 37.7 °F 30.44 in Calm     84 % 0.00 in
19:32 41.9 °F 37.4 °F 30.44 in Calm     84 % 0.00 in
19:37 41.6 °F 37.1 °F 30.44 in Calm     84 % 0.00 in
19:42 41.4 °F 37.2 °F 30.44 in Calm     85 % 0.00 in
19:47 41.2 °F 37.0 °F 30.45 in Calm     85 % 0.00 in
19:52 40.8 °F 36.6 °F 30.44 in Calm     85 % 0.00 in
19:57 40.6 °F 36.7 °F 30.43 in Calm     86 % 0.00 in
20:02 40.4 °F 36.5 °F 30.43 in SE 0.2 mph 1.2 mph 86 % 0.00 in
20:07 40.2 °F 36.3 °F 30.43 in SE 0.3 mph 1.2 mph 86 % 0.00 in
20:12 40.1 °F 36.2 °F 30.43 in SE 0.2 mph 1.2 mph 86 % 0.00 in
20:17 40.0 °F 36.4 °F 30.44 in SE 0.4 mph 1.2 mph 87 % 0.00 in
20:22 39.9 °F 36.3 °F 30.44 in Calm   1.2 mph 87 % 0.00 in
20:27 39.8 °F 36.2 °F 30.44 in Calm   1.2 mph 87 % 0.00 in
20:32 39.8 °F 36.5 °F 30.44 in SE 0.6 mph 2.3 mph 88 % 0.00 in
20:37 39.8 °F 36.5 °F 30.44 in Calm   1.2 mph 88 % 0.00 in
20:42 40.0 °F 37.3 °F 30.43 in SE 1.5 mph 3.5 mph 90 % 0.00 in
20:47 40.3 °F 37.6 °F 30.44 in SE 0.3 mph 2.3 mph 90 % 0.00 in
20:52 40.4 °F 38.0 °F 30.44 in SE 0.7 mph 2.3 mph 91 % 0.00 in
20:57 40.6 °F 38.2 °F 30.43 in SE 1.0 mph 2.3 mph 91 % 0.00 in
21:02 40.7 °F 38.3 °F 30.43 in SE 0.8 mph 3.0 mph 91 % 0.00 in
21:07 40.9 °F 38.5 °F 30.44 in SE 0.6 mph 2.0 mph 91 % 0.00 in
21:13 41.2 °F 38.8 °F 30.44 in Calm     91 % 0.00 in
21:14 41.2 °F 38.8 °F 30.44 in Calm     91 % 0.00 in
21:19 41.4 °F 39.0 °F 30.44 in Calm     91 % 0.00 in
21:24 41.5 °F 38.8 °F 30.45 in Calm     90 % 0.00 in
21:29 41.7 °F 39.0 °F 30.44 in Calm   1.2 mph 90 % 0.00 in
21:34 41.9 °F 39.2 °F 30.44 in SE 0.3 mph 1.2 mph 90 % 0.00 in
21:39 42.1 °F 39.4 °F 30.44 in Calm     90 % 0.00 in
21:44 42.2 °F 39.2 °F 30.44 in SE 0.4 mph 1.2 mph 89 % 0.00 in
21:49 42.3 °F 39.3 °F 30.44 in SE 0.5 mph 2.0 mph 89 % 0.00 in
21:54 42.5 °F 39.5 °F 30.43 in Calm   1.2 mph 89 % 0.00 in
21:59 42.6 °F 39.3 °F 30.43 in Calm     88 % 0.00 in
22:04 42.7 °F 39.4 °F 30.44 in Calm     88 % 0.00 in
22:09 42.8 °F 39.5 °F 30.44 in Calm     88 % 0.00 in
22:14 42.9 °F 39.6 °F 30.44 in Calm     88 % 0.00 in
22:19 42.9 °F 39.6 °F 30.44 in Calm     88 % 0.00 in
22:22 43.0 °F 39.4 °F 30.43 in Calm   1.2 mph 87 % 0.00 in
22:27 43.1 °F 39.5 °F 30.44 in SE 0.6 mph 2.3 mph 87 % 0.00 in
22:32 43.1 °F 39.5 °F 30.44 in Calm     87 % 0.00 in
22:42 43.3 °F 39.7 °F 30.44 in Calm   2.3 mph 87 % 0.00 in
22:47 43.4 °F 39.8 °F 30.44 in Calm     87 % 0.00 in
22:52 43.5 °F 39.6 °F 30.43 in Calm   1.2 mph 86 % 0.00 in
22:57 43.5 °F 39.6 °F 30.44 in Calm   1.2 mph 86 % 0.00 in
23:03 43.6 °F 39.7 °F 30.43 in Calm     86 % 0.00 in
23:07 43.6 °F 39.7 °F 30.43 in SE 0.1 mph   86 % 0.00 in
23:13 43.7 °F 39.8 °F 30.43 in Calm     86 % 0.00 in
23:18 43.7 °F 39.8 °F 30.43 in Calm     86 % 0.00 in
23:23 43.8 °F 39.9 °F 30.43 in Calm     86 % 0.00 in
23:28 43.8 °F 39.6 °F 30.42 in Calm     85 % 0.00 in
23:33 43.9 °F 39.7 °F 30.42 in SE 2.0 mph 4.0 mph 85 % 0.00 in
23:38 43.9 °F 39.7 °F 30.42 in SE 2.0 mph 3.5 mph 85 % 0.00 in
23:43 43.9 °F 39.7 °F 30.42 in SE 0.6 mph 2.3 mph 85 % 0.00 in
23:48 44.0 °F 39.8 °F 30.42 in SE 0.7 mph 2.3 mph 85 % 0.00 in
23:53 44.0 °F 39.8 °F 30.42 in SE 1.0 mph 2.3 mph 85 % 0.00 in
23:57 44.0 °F 39.5 °F 30.41 in Calm   1.0 mph 84 % 0.00 in
Crab Meadow Weather
Compliments of Weather Underground - 3 mb

Script developed by  Jim McMurry - jmcmurry@mwt.net Adapted for the template by  Wim van der Kuil - Leuven-Template.eu

Weather Terms: Severe Thunderstorm Watch - Conditions are favorable for the development of severe thunderstorms in and close to the watch area. These watches are issued for large areas by the Storm Prediction Center in Norman, Oklahoma, and are usually valid for four to six hours.